sat.trackr.live / text

‹ back to catalog

ONEWEB-0351

NORAD 49215 · 2021-083AF

PAYLOAD ACTIVE UNKNOWN

§ Identity

Operator
Country
UK
Launch date
2021-09-14
Launch site
TYMSC
Launch vehicle
Mass (kg)
RCS (m²)

Purposes: comms

External: N2YO · Heavens-Above · Gunter

§ Orbital elements

Epoch: 2026-09-19T19:15:45.099648Z

Period
109.03 min
Inclination
87.9142°
Eccentricity
0.0001491
Mean motion
13.20770649 rev/d
Perigee alt
1,180.7 km
Apogee alt
1,182.9 km
Semi-major
7,559.9 km
B*
8.3075e-5
RAAN
255.5655°
Arg perigee
74.7783°
Mean anomaly
285.3515°
Rev number
24,926

§ Raw data

ONEWEB-03511 49215U 21083AF  26262.80260532  .00000047  00000+0  83075-4 0  99962 49215  87.9142 255.5655 0001491  74.7783 285.3515 13.20770649249269

JSON: /api/v1/satellites/49215 · /tle

For live sub-satellite position, see the globe view (requires WebGL).

§ Visibility from observer

Set your observer location to see the next 7 days of passes ≥ 10°. The values pass through the URL so the page stays shareable.

No JS? Fill the form by hand. The geolocation button needs JavaScript.